| time (UTC) | temp C | wind direction | speed KPH | gust KPH | rain 1hr cm | rain 24hr cm | rain mn cm | humidity % | barometer mb |
| 20260505041057 | 14 | 0.0 | 1.6 | 0.00 | 0.00 | 0.00 | 60 | 1006.0 | |
| 20260505040017 | 15 | 0.0 | 3.2 | 0.00 | 0.00 | 0.00 | 58 | 1005.8 | |
| 20260505035017 | 15 | 0.0 | 1.6 | 0.00 | 0.00 | 0.00 | 57 | 1005.8 | |
| 20260505034057 | 16 | 0.0 | 1.6 | 0.00 | 0.00 | 0.00 | 56 | 1005.3 | |
| 20260505033017 | 16 | 0.0 | 0.0 | 0.00 | 0.00 | 0.00 | 54 | 1005.2 | |
| 20260505032017 | 17 | 0.0 | 1.6 | 0.00 | 0.00 | 0.00 | 52 | 1005.2 | |
| 20260505031017 | 18 | 0.0 | 1.6 | 0.00 | 0.00 | 0.00 | 49 | 1004.9 | |
| 20260505030017 | 19 | 23 | 1.6 | 4.8 | 0.00 | 0.00 | 0.00 | 45 | 1004.6 |
| 20260505025017 | 20 | 0.0 | 3.2 | 0.00 | 0.00 | 0.00 | 40 | 1004.5 | |
| 20260505024037 | 21 | 0.0 | 1.6 | 0.00 | 0.00 | 0.00 | 36 | 1004.5 | |
| 20260505023017 | 21 | 23 | 1.6 | 12.9 | 0.00 | 0.00 | 0.00 | 34 | 1004.1 |
| 20260505022017 | 21 | 0.0 | 4.8 | 0.00 | 0.00 | 0.00 | 36 | 1004.1 | |
| 20260505021037 | 22 | 45 | 1.6 | 8.0 | 0.00 | 0.00 | 0.00 | 30 | 1004.2 |
| 20260505020037 | 23 | 0.0 | 6.4 | 0.00 | 0.00 | 0.00 | 30 | 1004.1 | |
| 20260505015036 | 23 | 0.0 | 1.6 | 0.00 | 0.00 | 0.00 | 29 | 1004.1 | |
| 20260505014017 | 23 | 45 | 1.6 | 8.0 | 0.00 | 0.00 | 0.00 | 27 | 1004.3 |
| 20260505013016 | 24 | 0.0 | 3.2 | 0.00 | 0.00 | 0.00 | 29 | 1004.3 | |
| 20260505012016 | 24 | 0.0 | 1.6 | 0.00 | 0.00 | 0.00 | 26 | 1004.4 | |
| 20260505011037 | 24 | 45 | 1.6 | 8.0 | 0.00 | 0.00 | 0.00 | 28 | 1004.4 |
| 20260505010037 | 24 | 45 | 3.2 | 11.3 | 0.00 | 0.00 | 0.00 | 27 | 1004.4 |
| 20260505005016 | 24 | 68 | 1.6 | 4.8 | 0.00 | 0.00 | 0.00 | 26 | 1004.3 |
| 20260505004017 | 24 | 0.0 | 1.6 | 0.00 | 0.00 | 0.00 | 28 | 1004.4 | |
| 20260505003017 | 24 | 0.0 | 0.0 | 0.00 | 0.00 | 0.00 | 27 | 1004.4 | |
| 20260505002016 | 24 | 0.0 | 3.2 | 0.00 | 0.00 | 0.00 | 26 | 1004.4 | |
| 20260505001036 | 24 | 0.0 | 6.4 | 0.00 | 0.00 | 0.00 | 25 | 1004.4 | |
| 20260505000037 | 24 | 68 | 1.6 | 9.7 | 0.00 | 0.00 | 0.00 | 27 | 1004.5 |
| 20260504235016 | 25 | 68 | 1.6 | 6.4 | 0.00 | 0.00 | 0.00 | 26 | 1004.6 |
| 20260504234017 | 25 | 68 | 4.8 | 9.7 | 0.00 | 0.00 | 0.00 | 27 | 1004.6 |
| 20260504233016 | 25 | 90 | 1.6 | 8.0 | 0.00 | 0.00 | 0.00 | 26 | 1004.8 |
| 20260504232016 | 24 | 23 | 1.6 | 9.7 | 0.00 | 0.00 | 0.00 | 30 | 1004.9 |
| 20260504231016 | 23 | 45 | 1.6 | 8.0 | 0.00 | 0.00 | 0.00 | 29 | 1005.0 |
| 20260504230037 | 23 | 0.0 | 3.2 | 0.00 | 0.00 | 0.00 | 28 | 1005.0 | |
| 20260504225036 | 23 | 45 | 1.6 | 6.4 | 0.00 | 0.00 | 0.00 | 27 | 1005.2 |
| 20260504224016 | 23 | 90 | 4.8 | 11.3 | 0.00 | 0.00 | 0.00 | 28 | 1005.5 |
| 20260504223037 | 23 | 90 | 4.8 | 12.9 | 0.00 | 0.00 | 0.00 | 27 | 1005.5 |
| 20260504222016 | 25 | 45 | 4.8 | 12.9 | 0.00 | 0.00 | 0.00 | 27 | 1005.5 |
| 20260504221016 | 25 | 68 | 4.8 | 9.7 | 0.00 | 0.00 | 0.00 | 27 | 1005.7 |
| 20260504220016 | 23 | 68 | 3.2 | 8.0 | 0.00 | 0.00 | 0.00 | 32 | 1005.7 |
| 20260504215016 | 23 | 45 | 8.0 | 11.3 | 0.00 | 0.00 | 0.00 | 27 | 1005.8 |
| 20260504214036 | 23 | 270 | 1.6 | 4.8 | 0.00 | 0.00 | 0.00 | 29 | 1005.8 |
| 20260504213016 | 23 | 0.0 | 3.2 | 0.00 | 0.00 | 0.00 | 31 | 1005.8 | |
| 20260504212056 | 24 | 68 | 6.4 | 17.7 | 0.00 | 0.00 | 0.00 | 27 | 1006.0 |
| 20260504211016 | 23 | 45 | 3.2 | 11.3 | 0.00 | 0.00 | 0.00 | 27 | 1005.8 |
| 20260504210016 | 23 | 135 | 1.6 | 9.7 | 0.00 | 0.00 | 0.00 | 28 | 1005.8 |
| 20260504205016 | 23 | 45 | 4.8 | 16.1 | 0.00 | 0.00 | 0.00 | 28 | 1006.0 |
| 20260504204038 | 24 | 45 | 6.4 | 17.7 | 0.00 | 0.00 | 0.00 | 28 | 1006.0 |
| 20260504203018 | 23 | 113 | 3.2 | 11.3 | 0.00 | 0.00 | 0.00 | 28 | 1006.0 |
| 20260504202018 | 23 | 45 | 6.4 | 12.9 | 0.00 | 0.00 | 0.00 | 27 | 1005.9 |
| 20260504201018 | 23 | 113 | 3.2 | 9.7 | 0.00 | 0.00 | 0.00 | 27 | 1006.0 |
| 20260504200038 | 23 | 113 | 4.8 | 12.9 | 0.00 | 0.00 | 0.00 | 28 | 1006.0 |
| 20260504195018 | 23 | 45 | 4.8 | 9.7 | 0.00 | 0.00 | 0.00 | 28 | 1006.1 |
| 20260504194017 | 23 | 45 | 6.4 | 14.5 | 0.00 | 0.00 | 0.00 | 28 | 1006.1 |
| 20260504193038 | 23 | 68 | 3.2 | 9.7 | 0.00 | 0.00 | 0.00 | 29 | 1006.1 |
| 20260504192018 | 23 | 45 | 3.2 | 6.4 | 0.00 | 0.00 | 0.00 | 29 | 1006.2 |
| 20260504191017 | 23 | 68 | 4.8 | 12.9 | 0.00 | 0.00 | 0.00 | 30 | 1006.3 |
| 20260504190018 | 23 | 45 | 1.6 | 9.7 | 0.00 | 0.00 | 0.00 | 30 | 1006.3 |
| 20260504185018 | 23 | 113 | 1.6 | 8.0 | 0.00 | 0.00 | 0.00 | 29 | 1006.6 |
| 20260504184019 | 23 | 90 | 1.6 | 8.0 | 0.00 | 0.00 | 0.00 | 29 | 1006.6 |
| 20260504183017 | 22 | 90 | 3.2 | 9.7 | 0.00 | 0.00 | 0.00 | 28 | 1006.6 |
| 20260504182017 | 22 | 90 | 3.2 | 9.7 | 0.00 | 0.00 | 0.00 | 30 | 1006.5 |
| 20260504181018 | 22 | 45 | 1.6 | 8.0 | 0.00 | 0.00 | 0.00 | 32 | 1006.6 |
| 20260504180017 | 22 | 90 | 1.6 | 9.7 | 0.00 | 0.00 | 0.00 | 33 | 1006.6 |
| 20260504175017 | 21 | 90 | 3.2 | 9.7 | 0.00 | 0.00 | 0.00 | 34 | 1006.7 |
| 20260504174037 | 21 | 90 | 3.2 | 9.7 | 0.00 | 0.00 | 0.00 | 38 | 1006.7 |
| 20260504173018 | 21 | 45 | 1.6 | 8.0 | 0.00 | 0.00 | 0.00 | 39 | 1006.7 |
| 20260504172017 | 21 | 45 | 3.2 | 8.0 | 0.00 | 0.00 | 0.00 | 40 | 1006.9 |
| 20260504171017 | 20 | 68 | 1.6 | 6.4 | 0.00 | 0.00 | 0.00 | 39 | 1006.9 |
| 20260504151017 | 13 | 0 | 1.6 | 3.2 | 0.00 | 0.00 | 0.00 | 60 | 1007.7 |
| 20260504141037 | 7 | 0.0 | 0.0 | 0.00 | 0.00 | 0.00 | 86 | 1007.6 | |
| 20260504081016 | 8 | 0.0 | 0.0 | 0.00 | 0.00 | 0.00 | 73 | 1007.6 | |
| 20260504050017 | 13 | 0.0 | 0.0 | 0.00 | 0.00 | 0.00 | 59 | 1006.7 |